Location: Jesenik
(50.2330°N, 17.2000°E)
Time: 18:56:42
(UTC+02:00)

ISS - Pass Details

Date: 24 March 2019
Orbit: 408 x 410 km, 51.6° (Epoch: 22 April)

Event Time Altitude Azimuth Distance (km) Brightness Sun altitude
Rises 19:27:56 0° 233° (SW) 2,328 0.5 -13.0°
Reaches altitude 10° 19:30:03 10° 228° (SW) 1,469 -0.6 -13.3°
Maximum altitude 19:33:14 47° 153° (SSE) 554 -3.5 -13.8°
Enters shadow 19:34:34 28° 96° (E) 794 -2.9 -14.0°
